Wetbulb
37.99 33.99 32.23 36.45 35.61 34.61 31.54 30.58 29.81 32.65 37.66 34.28 36.71 36.71 38.36 40.89 40.11 41.24 42.65 42.92 43.27 43.37 46.24 46.78 45.82 45.57 44.03 43.56 43.39 43.28 42.45 44.40 45.20 45.32 44.01 42.89 42.46 43.33 42.81 43.65 42.94 41.85 41.78 40.20
33.86 30.90 36.37 36.33 35.06 34.26 33.22 31.73 31.57 34.96 37.29 33.62 33.78 34.96 38.97 40.78 41.37 42.33 42.56 43.03 42.17 42.62 43.69 44.39 44.54 44.17 43.42 43.92 42.92 43.12 42.46 42.69 43.69 45.00 45.10 45.67 44.88 44.14 43.70 42.73 41.80 41.41 41.06 40.18
33.87 35.64 37.51 35.87 33.47 33.27 30.89 30.35 32.41 31.47 33.22 33.67 31.75 31.97 33.85 37.96 38.77 40.60 42.40 42.55 42.68 42.58 43.12 43.52 43.12 43.34 43.28 42.14 42.39 42.37 42.75 42.15 42.59 44.14 43.98 38.37 40.33 38.84 39.78 39.61 39.54 39.41 39.91 39.52
32.79 36.26 35.64 32.29 32.31 33.86 30.65 34.39 34.08 32.10 29.64 26.93 32.61 25.98 34.16 40.16 39.62 40.47 39.58 39.43 39.95 40.42 41.18 41.57 42.01 42.62 42.46 42.66 42.62 42.09 42.26 41.92 41.76 42.88 41.87 40.96 41.87 39.51 40.52 41.31 40.41 39.37 39.03 38.69
33.08 32.31 31.82 31.90 33.92 34.47 32.86 33.79 32.35 31.10 28.62 27.43 27.36 25.98 30.31 33.58 36.82 37.70 39.85 41.00 40.69 41.48 40.92 41.43 41.38 41.34 41.71 41.97 42.03 41.22 41.30 41.47 41.70 41.48 42.40 40.81 40.98 42.20 40.53 41.44 39.34 38.79 37.78 38.42
33.07 34.12 34.74 35.05 34.33 35.09 34.37 31.80 30.65 28.18 27.54 22.28 28.56 28.48 29.28 32.15 35.06 36.98 38.69 40.57 39.64 39.95 39.77 40.33 40.29 40.00 41.33 40.92 40.16 40.09 39.69 40.07 40.48 40.26 41.08 40.50 40.32 41.09 37.41 37.96 37.37 37.17 36.97 36.70
30.52 32.05 33.98 35.64 32.22 32.85 32.94 29.66 24.27 22.75 21.18 25.60 28.08 25.92 33.05 35.65 39.32 37.25 38.19 39.04 39.09 38.87 38.48 39.41 42.21 42.05 42.52 41.69 40.08 39.31 38.20 38.14 38.67 38.63 39.43 40.33 39.71 40.46 37.53 37.02 37.48 35.87 35.60 35.28
26.33 29.58 32.32 34.64 35.96 34.14 31.54 32.22 27.35 19.49 20.27 28.41 25.89 25.32 32.23 37.46 38.00 37.81 37.34 37.67 38.49 41.29 39.67 39.74 40.30 39.27 39.94 38.98 39.36 37.97 36.67 36.27 36.70 36.97 37.86 38.88 38.87 39.59 38.19 36.90 37.80 36.75 36.55 36.64
32.25 28.75 31.33 33.50 34.45 36.28 30.76 29.18 33.37 27.80 15.94 19.62 30.10 34.23 37.69 35.67 36.74 37.83 36.69 37.58 38.25 37.91 36.77 35.86 35.94 36.39 36.67 36.63 36.81 36.18 35.56 35.41 35.65 35.79 36.21 36.68 37.16 37.92 37.42 36.59 36.69 36.55 36.98 36.61
34.13 29.72 34.39 32.95 32.21 32.37 32.66 33.74 27.77 26.81 20.71 20.91 27.70 29.36 31.30 35.03 36.66 36.27 36.30 33.02 33.59 34.26 34.11 34.22 34.32 34.19 34.63 35.07 35.60 36.44 36.55 35.29 34.99 34.83 35.05 36.07 36.07 36.75 37.00 34.80 34.36 35.19 35.48 35.54
37.81 33.07 31.78 33.58 31.64 32.37 33.62 29.99 30.04 29.36 28.37 24.22 22.83 27.47 35.52 34.68 32.97 31.55 33.25 34.66 32.71 32.22 32.39 32.91 33.77 34.37 34.33 34.61 34.70 34.68 34.84 35.02 34.64 35.32 35.34 34.62 35.02 35.02 35.37 33.91 33.86 34.24 34.48 33.84
39.21 35.20 30.81 32.52 35.47 35.81 34.82 33.93 33.54 28.13 26.18 28.07 28.26 28.06 39.78 36.81 33.94 31.68 30.67 30.36 30.41 30.79 30.94 31.61 32.30 32.98 33.28 33.16 33.47 33.56 33.74 34.29 33.83 33.82 34.26 33.86 34.47 33.43 33.22 33.43 33.54 33.30 32.98 32.94
38.69 33.47 27.99 26.73 29.56 33.40 31.70 34.13 33.41 30.78 30.81 26.87 24.81 27.77 36.23 35.94 35.11 29.50 27.87 28.05 28.90 29.56 29.74 30.59 31.17 31.60 32.61 32.50 32.68 32.72 32.87 33.46 33.28 32.75 32.84 33.20 32.76 32.65 32.67 33.27 33.16 32.33 32.94 32.48
39.52 33.80 30.77 25.25 28.37 29.27 28.26 27.84 28.04 27.02 22.68 23.47 23.67 25.71 30.00 31.77 27.19 28.14 27.86 28.53 28.38 28.44 28.85 29.79 30.66 31.00 32.58 32.34 32.08 32.05 32.03 32.65 32.19 31.54 31.67 31.86 31.93 32.08 32.73 33.53 33.51 32.65 32.65 32.09
32.85 27.81 27.82 31.26 28.12 26.01 25.15 24.83 25.16 23.28 24.37 20.08 23.04 23.99 28.16 25.15 24.42 25.57 26.94 27.90 28.14 26.70 26.79 27.97 29.51 30.00 31.32 31.44 31.78 32.23 32.02 31.55 31.30 30.55 30.63 30.83 31.20 31.34 31.75 31.86 32.63 32.79 32.03 31.80
29.15 22.43 23.49 16.80 24.68 25.36 21.85 21.89 22.03 22.29 22.43 21.85 22.92 22.38 25.06 26.21 25.92 24.88 25.05 25.32 27.02 25.63 25.91 26.66 27.96 28.93 28.85 29.60 30.08 30.55 30.51 30.83 30.53 29.83 29.84 30.52 29.80 29.60 29.98 30.65 31.06 31.23 30.78 30.98
22.95 21.48 12.99 15.74 21.66 16.10 9.94 18.02 22.75 21.84 20.41 20.31 18.09 20.80 23.36 22.49 23.67 24.18 23.69 24.47 26.29 25.12 25.65 25.83 26.43 27.42 27.40 27.90 29.04 28.84 29.33 28.82 28.62 29.54 30.00 30.32 28.52 27.05 27.89 28.88 29.05 29.34 29.82 29.76
22.65 15.62 9.58 2.72 2.00 -3.69 18.09 21.22 23.04 22.23 21.04 20.24 19.46 19.36 21.77 22.63 25.17 24.62 25.46 24.75 24.93 25.41 25.71 25.80 26.08 26.71 26.89 27.38 26.79 27.36 27.49 26.19 27.13 27.30 28.95 29.80 27.44 25.91 26.27 27.03 27.48 28.01 28.80 28.95
23.88 19.78 1.69 -0.30 -4.77 9.69 18.29 18.25 16.01 12.76 11.80 18.50 14.70 16.76 21.02 23.88 23.86 21.90 25.05 25.55 24.81 25.41 25.75 26.24 26.60 26.62 26.42 25.89 25.62 25.35 24.49 24.56 24.74 25.46 27.27 24.43 23.09 25.49 26.24 25.80 26.74 26.84 27.41 27.82
21.34 22.07 13.21 -4.80 -2.25 -5.48 12.50 17.77 21.22 19.00 7.17 16.98 17.05 17.33 19.18 22.08 13.66 18.58 23.46 24.62 24.36 24.66 24.67 24.28 25.40 24.92 24.17 23.82 24.04 23.38 22.55 21.96 21.42 24.58 23.23 21.64 22.79 25.60 26.19 25.47 25.98 27.21 27.28 27.00
-1.68 -0.10 9.94 6.00 5.88 5.59 14.52 19.74 20.62 3.77 9.04 15.64 16.27 19.89 20.10 18.76 21.12 24.35 24.58 23.60 23.39 22.87 23.02 23.54 22.65 21.93 21.98 23.01 22.14 21.61 21.14 19.59 21.18 21.81 20.04 20.25 21.55 22.33 22.17 25.15 25.63 25.78 25.67 25.59
8.28 -1.90 -7.29 -13.09 -12.28 -2.98 15.79 18.14 10.98 16.19 21.30 18.57 21.87 21.69 20.43 22.53 23.73 24.46 23.82 23.15 22.70 21.06 21.75 22.27 20.32 20.37 21.28 20.88 20.14 18.91 17.92 19.80 19.32 17.84 17.96 17.19 17.27 17.67 19.56 20.84 23.93 24.56 24.13 23.85
7.87 11.35 5.13 7.30 6.49 17.76 18.78 19.38 25.20 25.15 20.89 23.22 22.85 23.67 23.09 22.11 22.69 22.51 21.23 20.81 20.77 20.50 20.82 20.77 18.46 18.18 18.98 19.15 18.26 15.12 16.78 17.23 16.01 14.06 12.43 12.64 13.79 14.68 15.69 16.75 19.59 22.67 23.32 22.08
14.45 18.55 13.78 15.07 19.11 20.43 23.26 25.12 25.43 24.80 24.25 25.31 24.88 22.71 21.44 19.74 20.42 19.64 18.76 18.91 18.92 18.95 17.99 17.96 16.64 15.48 15.17 16.65 16.56 14.62 14.70 14.30 10.84 9.01 9.03 9.70 9.64 10.96 12.70 14.97 17.94 22.18 21.95 21.68
19.32 17.45 13.42 15.22 20.37 22.00 23.23 24.16 24.85 24.87 24.04 21.39 20.21 19.76 18.48 17.52 16.56 16.95 15.98 15.55 15.57 15.33 15.10 14.65 13.35 12.89 12.44 13.28 12.31 11.85 11.03 9.42 7.16 6.59 6.86 6.59 7.20 7.62 9.66 12.97 15.47 19.10 22.70 23.11
21.25 18.95 16.11 14.37 21.98 21.14 22.19 24.82 21.89 20.41 18.14 16.07 15.25 14.63 15.98 15.24 13.47 13.36 11.74 12.47 11.68 10.76 10.54 8.88 8.50 7.87 7.31 7.09 6.57 6.66 6.64 5.57 3.51 2.74 3.30 3.76 4.41 5.41 7.09 8.45 10.20 18.16 22.31 26.54
MSLP
1017.16 1017.76 1017.54 1017.01 1016.93 1017.08 1017.36 1017.39 1017.09 1016.31 1015.45 1015.02 1014.12 1013.15 1012.20 1011.37 1010.93 1009.05 1008.49 1007.85 1007.77 1007.95 1007.34 1007.44 1007.92 1008.22 1008.50 1008.91 1009.40 1009.61 1010.07 1010.49 1011.48 1012.01 1012.57 1013.21 1012.74 1013.29 1013.85 1014.21 1014.80 1015.63 1016.36 1016.83
1017.94 1017.30 1016.75 1016.63 1016.79 1017.23 1017.32 1017.34 1016.91 1015.81 1015.14 1015.45 1014.05 1012.12 1011.79 1010.10 1008.88 1008.53 1007.72 1006.82 1007.77 1007.39 1007.02 1007.17 1007.68 1007.94 1008.22 1008.33 1008.54 1008.99 1009.31 1009.89 1010.30 1010.82 1011.39 1011.96 1012.28 1012.58 1013.08 1013.92 1014.71 1015.01 1015.35 1016.24
1016.86 1016.28 1016.21 1016.91 1016.96 1017.10 1016.89 1017.20 1016.47 1016.29 1015.80 1015.28 1014.32 1011.69 1010.75 1009.17 1008.13 1007.62 1006.48 1007.19 1007.27 1007.39 1007.31 1007.31 1007.63 1007.51 1007.83 1008.34 1008.41 1008.69 1008.85 1008.89 1009.07 1009.78 1010.79 1011.52 1011.96 1012.75 1012.96 1013.15 1013.63 1013.92 1014.70 1015.14
1016.86 1016.19 1016.44 1016.82 1016.84 1016.59 1016.74 1015.64 1016.20 1016.46 1016.80 1016.32 1015.01 1012.30 1010.29 1008.97 1008.09 1006.80 1007.15 1007.17 1007.12 1007.67 1007.55 1007.55 1007.68 1007.81 1008.03 1007.74 1007.56 1007.71 1008.20 1008.54 1008.99 1009.58 1009.61 1009.61 1010.03 1010.68 1010.12 1010.84 1012.20 1012.99 1013.89 1014.61
1016.16 1016.16 1016.41 1016.75 1016.15 1016.06 1015.99 1015.62 1016.13 1016.45 1016.86 1016.59 1015.55 1014.29 1009.88 1008.74 1008.21 1007.29 1007.11 1006.94 1007.33 1007.88 1007.72 1008.01 1008.28 1008.24 1007.97 1007.35 1007.04 1007.53 1008.04 1008.20 1008.52 1008.96 1009.36 1010.15 1009.80 1009.40 1010.18 1011.17 1011.95 1012.44 1013.21 1013.74
1016.12 1015.77 1015.89 1015.42 1015.39 1015.51 1015.78 1016.15 1016.46 1016.93 1017.06 1016.23 1014.17 1013.20 1010.49 1008.73 1008.12 1007.79 1007.57 1007.58 1007.73 1008.24 1008.59 1008.54 1008.54 1008.50 1007.51 1007.35 1007.84 1007.59 1007.88 1007.73 1007.79 1008.41 1008.99 1008.94 1009.23 1009.56 1010.05 1010.09 1010.71 1011.78 1012.89 1013.72
1016.08 1015.62 1014.99 1014.95 1015.42 1015.63 1015.95 1016.94 1017.53 1017.04 1016.80 1014.64 1012.85 1012.01 1009.38 1007.83 1007.37 1008.07 1008.82 1009.00 1009.16 1009.36 1009.36 1008.74 1008.45 1008.25 1008.62 1009.00 1009.07 1008.89 1008.47 1008.26 1008.19 1008.33 1008.63 1008.88 1008.75 1008.72 1009.04 1009.70 1010.30 1010.69 1011.46 1012.22
1016.99 1015.54 1015.11 1014.75 1014.65 1014.84 1015.81 1016.24 1016.94 1016.59 1016.60 1014.14 1012.79 1009.70 1008.15 1007.80 1007.88 1008.45 1009.10 1009.78 1009.94 1009.57 1010.15 1010.92 1010.70 1010.43 1010.21 1010.06 1009.82 1009.03 1008.96 1008.70 1009.11 1008.93 1009.19 1009.31 1009.38 1009.20 1008.87 1008.89 1009.20 1009.54 1009.94 1010.67
1016.56 1015.57 1015.08 1015.00 1014.38 1014.43 1015.39 1015.54 1015.03 1015.59 1016.23 1015.05 1011.95 1008.08 1007.91 1007.57 1008.92 1009.51 1010.56 1010.95 1011.76 1012.48 1012.51 1012.15 1012.36 1012.55 1012.24 1011.55 1011.06 1011.30 1010.38 1010.02 1009.49 1009.36 1009.34 1009.14 1009.25 1009.39 1009.43 1009.13 1009.10 1009.55 1009.65 1010.06
1015.73 1015.74 1014.84 1014.82 1014.93 1014.70 1014.34 1014.71 1015.45 1016.03 1015.94 1014.86 1011.25 1010.31 1008.79 1009.33 1010.85 1011.92 1013.03 1014.28 1014.87 1014.75 1014.56 1014.58 1014.09 1013.65 1013.45 1012.72 1012.04 1011.59 1011.48 1011.42 1010.97 1010.33 1009.90 1009.23 1008.93 1009.03 1009.24 1009.20 1009.01 1008.91 1008.89 1009.26
1016.36 1016.27 1015.00 1015.00 1014.51 1014.70 1015.14 1014.98 1016.10 1016.11 1015.52 1014.39 1013.25 1009.59 1008.87 1011.17 1013.19 1014.96 1015.82 1016.32 1016.54 1016.65 1016.35 1016.05 1015.69 1015.38 1014.60 1014.18 1013.59 1012.74 1012.25 1011.70 1011.34 1010.36 1009.87 1009.50 1009.08 1008.82 1008.62 1008.49 1008.46 1008.35 1008.06 1008.71
1016.86 1016.16 1015.46 1014.23 1013.69 1013.60 1014.19 1014.48 1015.09 1015.57 1014.68 1013.35 1012.30 1010.43 1010.33 1011.77 1014.07 1015.47 1016.53 1017.34 1017.62 1017.80 1017.44 1016.65 1016.36 1015.78 1015.17 1014.48 1014.20 1013.94 1013.06 1012.24 1011.90 1011.31 1010.74 1010.05 1009.31 1008.86 1008.55 1008.30 1007.96 1007.76 1007.35 1007.74
1016.84 1016.85 1016.13 1014.86 1014.86 1014.64 1015.26 1015.73 1015.99 1016.09 1015.56 1014.09 1012.95 1011.51 1011.31 1011.25 1013.13 1016.20 1017.14 1017.78 1018.05 1017.81 1017.01 1016.19 1016.23 1015.97 1015.38 1014.86 1014.26 1014.12 1013.87 1012.96 1012.38 1011.45 1010.79 1010.09 1009.58 1009.14 1008.37 1008.01 1007.84 1007.53 1006.88 1007.15
1017.54 1017.44 1017.17 1016.45 1015.83 1016.36 1016.88 1016.96 1016.89 1017.44 1016.65 1015.26 1014.97 1013.70 1013.92 1014.23 1015.08 1016.98 1017.95 1017.92 1017.67 1017.71 1017.20 1016.31 1016.29 1016.20 1015.63 1015.04 1014.84 1014.06 1013.69 1013.22 1012.84 1011.97 1011.26 1010.16 1009.40 1009.27 1008.59 1007.99 1007.28 1006.93 1006.91 1006.20
1018.99 1018.60 1018.31 1017.54 1017.61 1017.79 1017.93 1018.02 1017.49 1017.25 1017.11 1016.87 1015.46 1015.23 1015.49 1016.13 1017.13 1016.97 1017.32 1017.67 1017.73 1017.55 1017.51 1016.90 1016.73 1016.77 1015.84 1015.54 1015.02 1013.93 1013.70 1013.52 1012.73 1012.17 1011.69 1010.77 1009.55 1009.30 1008.80 1008.03 1007.18 1006.52 1006.15 1006.28
1020.95 1020.58 1020.31 1019.62 1019.20 1018.87 1018.12 1017.81 1017.27 1017.24 1017.23 1017.07 1016.64 1016.27 1017.42 1017.96 1018.13 1017.80 1017.33 1017.24 1017.33 1017.44 1017.06 1016.58 1016.74 1016.44 1016.11 1016.17 1015.51 1014.81 1014.12 1013.90 1013.16 1012.07 1011.36 1010.88 1009.79 1009.83 1009.27 1008.43 1007.23 1006.24 1006.02 1005.76
1022.02 1022.06 1022.45 1021.46 1021.03 1020.62 1019.04 1017.00 1016.72 1016.77 1017.16 1017.67 1018.13 1018.58 1018.74 1018.64 1018.55 1018.35 1017.88 1017.70 1017.17 1016.95 1016.69 1016.68 1016.71 1016.37 1016.38 1016.06 1015.50 1015.01 1014.32 1013.78 1013.45 1012.19 1011.30 1010.66 1009.94 1009.72 1009.22 1008.60 1007.72 1006.51 1005.73 1005.68
1021.73 1022.68 1023.38 1023.20 1023.31 1021.80 1018.24 1017.31 1017.15 1017.45 1018.09 1018.82 1019.28 1019.37 1019.17 1018.93 1018.51 1018.23 1017.96 1017.57 1017.09 1016.63 1016.20 1016.18 1016.13 1016.11 1016.11 1015.76 1015.32 1015.04 1014.47 1013.86 1012.77 1011.95 1011.29 1010.87 1010.36 1009.52 1008.84 1008.44 1007.32 1006.43 1005.77 1005.10
1022.07 1023.32 1024.50 1025.21 1024.96 1021.60 1019.33 1018.63 1018.41 1018.55 1019.11 1019.48 1019.75 1019.63 1019.10 1018.72 1018.34 1017.72 1017.48 1017.04 1017.01 1016.74 1016.33 1015.96 1015.74 1015.54 1015.19 1014.95 1014.67 1014.29 1013.60 1012.88 1012.27 1011.78 1011.04 1010.73 1010.41 1009.47 1008.47 1007.68 1007.29 1006.45 1005.73 1004.85
1022.51 1023.29 1024.53 1025.89 1025.28 1022.79 1019.95 1018.91 1018.61 1019.19 1019.34 1019.31 1019.45 1019.20 1018.84 1018.43 1018.32 1017.05 1016.88 1016.70 1016.60 1016.30 1016.05 1015.72 1015.30 1014.97 1014.46 1013.92 1013.77 1013.29 1012.81 1012.45 1012.09 1011.48 1011.22 1011.09 1010.65 1009.93 1008.95 1008.15 1007.24 1006.24 1005.43 1004.81
1024.19 1024.45 1024.84 1024.96 1024.51 1022.29 1019.66 1018.76 1018.75 1019.19 1019.47 1018.38 1018.49 1018.09 1017.94 1017.79 1017.05 1016.18 1016.03 1016.13 1016.01 1015.78 1015.57 1015.38 1015.08 1014.66 1014.07 1013.67 1013.48 1012.95 1012.60 1012.16 1011.86 1011.61 1011.40 1010.89 1010.37 1009.79 1009.08 1007.93 1006.93 1005.93 1004.50 1003.97
1023.42 1024.07 1025.21 1024.98 1024.23 1021.82 1018.80 1018.60 1018.25 1017.74 1017.40 1017.40 1017.13 1016.88 1016.86 1016.39 1015.98 1015.73 1015.53 1015.41 1015.56 1015.51 1015.12 1014.90 1014.80 1014.23 1013.64 1013.53 1013.35 1012.75 1012.23 1011.93 1011.71 1011.49 1011.03 1010.58 1010.01 1009.27 1008.51 1007.67 1006.18 1005.08 1004.04 1003.20
1022.42 1021.83 1022.26 1021.95 1020.03 1018.82 1018.07 1017.22 1016.40 1016.44 1016.73 1016.34 1016.27 1015.84 1015.86 1015.81 1015.50 1015.38 1015.49 1015.40 1015.33 1015.38 1015.10 1014.84 1014.59 1013.90 1013.23 1013.11 1013.01 1012.49 1011.66 1011.80 1011.49 1011.16 1010.78 1010.35 1009.79 1008.94 1008.04 1006.81 1005.30 1004.10 1003.54 1003.17
1020.23 1019.72 1019.72 1019.52 1018.00 1017.38 1016.44 1015.80 1015.67 1015.64 1015.68 1015.55 1015.71 1015.76 1015.81 1015.95 1015.90 1016.03 1015.98 1015.60 1015.36 1015.01 1014.98 1014.89 1014.43 1013.83 1013.15 1012.82 1012.65 1012.33 1011.84 1011.68 1011.34 1010.76 1010.23 1009.69 1009.03 1007.99 1007.04 1006.11 1005.06 1003.60 1002.76 1002.27
1017.85 1018.20 1017.84 1017.04 1016.27 1016.04 1015.24 1015.07 1015.04 1015.20 1015.42 1015.82 1016.13 1016.44 1016.58 1016.69 1016.48 1016.75 1016.16 1015.89 1015.64 1015.27 1015.16 1015.19 1014.77 1014.08 1013.10 1012.79 1012.44 1012.27 1011.96 1011.70 1010.90 1010.18 1009.50 1008.91 1008.33 1007.45 1006.27 1005.15 1004.13 1002.87 1001.51 1001.12
1016.29 1016.19 1016.55 1015.41 1014.64 1015.05 1014.56 1014.62 1015.22 1015.76 1016.31 1016.85 1017.10 1017.03 1017.25 1017.59 1017.33 1017.25 1016.55 1016.38 1016.20 1015.66 1015.49 1015.39 1015.04 1014.52 1013.56 1013.03 1012.36 1012.17 1011.99 1011.63 1010.83 1009.66 1008.86 1008.20 1007.51 1006.69 1005.75 1004.60 1002.97 1002.02 1000.60 999.25
Wind_Speed
2 4 10 18 15 3 2 5 7 7 10 6 18 18 19 17 15 25 22 21 16 13 16 12 6 6 7 7 10 14 15 16 12 12 12 11 15 14 12 12 16 16 14 16
3 8 14 3 4 8 8 10 12 9 11 4 10 21 19 26 23 21 22 22 8 9 9 7 5 5 6 6 10 11 14 14 15 12 11 7 10 11 11 10 11 14 16 16
11 6 6 8 5 8 5 6 10 11 7 5 8 9 5 7 5 9 18 12 12 12 13 8 6 5 4 7 9 11 12 14 15 16 8 2 3 2 8 10 11 14 16 16
7 4 5 3 6 10 7 10 11 7 3 4 5 11 4 19 15 14 8 7 9 7 6 4 7 8 6 8 8 8 9 12 12 14 13 18 14 12 11 12 10 12 16 16
7 4 4 4 10 8 11 1 4 4 4 2 1 5 5 1 8 8 7 7 4 2 6 7 7 7 7 6 4 5 6 9 10 13 14 11 15 11 3 7 11 13 13 16
8 2 5 7 4 6 2 1 3 4 2 3 12 10 5 4 3 5 3 3 7 10 8 7 6 8 7 7 6 5 6 8 8 12 15 16 16 13 6 9 11 10 9 10
3 5 3 4 1 1 3 6 5 5 1 9 2 3 6 5 5 1 9 12 10 7 8 9 16 16 16 17 15 10 4 6 5 8 11 14 14 14 12 11 10 12 11 12
4 12 5 4 8 7 7 9 6 6 6 17 3 9 4 8 2 4 5 5 6 14 11 12 15 13 18 20 20 20 15 8 5 4 8 8 9 9 8 10 10 10 12 13
4 8 2 6 4 6 5 5 2 1 3 3 10 20 8 3 7 10 8 8 13 18 19 20 18 17 17 16 19 19 19 14 7 5 5 6 6 10 8 7 9 8 9 10
3 8 8 3 3 2 5 2 1 3 2 11 20 20 14 12 14 14 21 19 19 19 21 20 19 19 18 18 19 19 18 17 14 10 6 7 7 8 8 6 10 11 11 12
3 6 5 0 7 4 8 2 3 3 5 9 13 14 5 9 17 13 10 12 14 14 15 14 15 15 14 15 17 16 17 18 18 16 14 11 10 8 8 9 10 12 11 12
5 4 9 17 8 8 9 13 13 14 11 11 15 17 9 12 12 11 12 12 11 10 12 11 12 12 13 15 16 17 18 16 16 17 15 13 13 9 9 11 12 11 12 11
3 4 4 8 2 4 3 3 3 4 3 9 14 6 15 21 21 11 9 8 8 9 9 10 12 13 13 13 12 13 15 15 17 17 15 15 14 13 12 13 12 11 12 13
5 5 10 13 17 4 3 7 10 6 4 9 11 21 21 24 16 11 10 8 9 11 12 10 10 12 11 11 11 11 13 13 13 16 16 16 16 16 14 15 12 11 13 13
2 10 4 12 8 3 8 14 17 16 17 13 21 24 19 4 9 14 11 9 7 9 11 11 10 10 11 13 14 14 12 11 12 13 13 14 16 16 15 13 13 11 12 12
3 3 4 5 12 8 13 16 20 20 22 21 25 20 5 1 7 9 14 12 10 9 11 11 11 11 11 13 12 11 13 15 13 11 12 12 13 16 17 16 13 11 12 12
2 3 1 10 13 5 9 17 19 7 3 3 4 2 2 4 8 5 12 12 11 12 13 11 10 10 10 11 10 11 11 13 13 13 12 11 12 15 16 16 14 10 10 11
10 4 3 6 5 4 6 4 4 2 4 3 4 4 6 7 8 7 9 8 9 14 16 13 10 9 8 10 10 10 10 11 11 13 12 12 16 16 15 16 14 13 9 10
15 8 2 3 6 8 11 4 4 4 6 8 6 5 6 9 4 11 10 5 8 11 13 12 11 11 11 10 8 9 11 11 12 13 12 15 18 18 17 16 16 13 12 9
2 10 5 3 5 8 6 4 3 4 7 9 9 8 8 4 4 13 8 6 10 10 10 12 12 12 13 13 9 11 12 11 12 12 11 14 14 16 16 16 17 12 10 12
3 3 12 8 5 9 7 6 3 6 7 6 6 9 7 7 11 16 10 8 7 8 12 10 10 13 15 12 11 13 12 14 13 10 13 15 14 15 16 18 14 15 12 10
6 5 4 3 2 9 5 1 7 8 6 6 11 12 10 13 14 13 12 12 9 10 13 13 11 14 15 13 11 14 16 14 9 12 15 15 16 14 13 17 16 14 11 10
5 8 6 12 9 5 6 9 16 12 8 16 13 14 12 13 15 10 10 11 12 13 12 12 12 15 16 14 10 13 16 14 14 13 14 16 17 15 15 15 17 13 10 10
7 6 10 10 13 17 19 18 14 11 14 16 13 8 4 7 9 10 11 13 14 15 14 13 14 16 18 15 13 13 15 13 13 16 17 15 16 17 15 12 12 12 10 10
10 5 4 12 16 14 18 14 15 13 8 4 4 2 6 6 10 10 13 14 15 16 14 13 14 17 21 19 19 16 15 15 17 17 17 17 14 15 15 13 12 12 12 13
11 16 10 14 18 12 16 10 2 2 2 4 5 9 6 7 12 12 15 14 14 16 16 16 17 19 20 20 21 18 17 15 17 19 16 14 12 12 12 12 14 21 28 28
Wind_Direction
182 138 192 216 205 156 169 236 254 256 263 295 276 272 278 274 268 273 271 271 269 259 269 266 268 240 233 216 202 202 195 200 186 192 190 202 209 203 203 203 199 192 191 185
69 229 222 187 168 220 245 271 270 275 264 195 274 286 277 267 261 263 268 276 280 278 272 283 284 241 232 247 220 210 208 198 196 199 205 217 212 217 211 205 205 199 189 188
200 224 174 188 207 244 195 222 257 258 317 247 319 279 280 289 258 259 261 269 274 263 292 319 308 272 268 264 241 227 219 207 199 199 190 146 124 172 196 201 201 199 193 186
239 267 178 147 225 207 264 223 250 271 11 242 27 291 157 279 280 259 301 290 277 307 296 328 353 337 310 257 253 228 210 205 206 200 199 202 208 210 213 205 202 195 193 192
244 182 162 181 225 147 232 132 208 194 201 353 269 264 268 45 264 291 285 286 351 313 21 3 330 300 289 286 313 258 227 218 206 200 208 218 223 219 177 198 190 193 193 194
239 324 183 216 191 186 108 38 53 60 123 267 210 190 316 176 230 314 283 293 62 17 5 338 291 271 325 2 343 322 250 231 194 196 210 209 219 219 193 180 182 187 187 195
310 224 258 162 186 52 113 61 311 313 346 251 330 229 232 236 305 177 356 344 359 3 348 340 348 350 354 357 356 344 312 305 230 210 216 224 221 212 200 189 193 180 186 193
317 304 192 173 200 190 178 174 182 256 277 290 193 244 210 209 236 133 91 10 328 351 358 354 356 357 1 359 355 359 352 342 310 255 244 243 238 233 223 201 198 196 196 202
208 258 216 223 172 168 171 186 219 259 95 289 266 277 270 291 77 42 34 9 359 16 18 18 23 22 11 12 11 0 359 345 331 280 270 250 239 236 236 214 202 202 200 198
191 285 232 316 4 332 171 155 35 18 196 255 276 282 269 321 11 20 25 31 16 12 14 7 9 9 5 7 6 7 9 2 345 325 285 267 247 242 240 208 206 206 200 193
127 169 244 67 179 243 306 260 218 253 214 250 265 267 92 75 67 58 16 25 25 14 9 5 4 3 4 4 3 2 3 1 356 354 339 301 275 251 236 222 218 212 195 190
227 233 265 259 213 205 209 235 238 241 233 219 235 245 329 85 83 51 42 34 35 22 5 5 0 358 359 2 1 356 352 355 353 347 342 333 304 271 253 243 230 210 201 196
122 251 261 309 154 48 81 46 69 337 226 246 261 260 334 325 347 42 63 41 23 8 6 2 354 352 351 352 356 353 349 346 344 345 344 344 341 319 280 258 242 222 210 204
157 224 251 264 272 82 289 322 308 287 267 287 271 290 296 305 333 21 13 0 359 354 355 352 350 342 338 341 340 344 340 343 340 341 339 342 347 336 315 288 261 233 225 210
347 267 269 260 292 337 269 263 267 264 259 261 275 272 280 42 346 329 326 335 338 346 348 344 334 328 333 336 334 340 335 335 337 335 334 333 339 336 328 310 285 257 232 230
355 298 343 290 295 282 285 278 265 266 260 258 258 270 53 9 313 316 319 328 321 321 335 336 325 324 329 323 323 329 331 328 325 326 329 326 341 336 331 323 303 277 253 238
218 219 84 271 302 333 285 257 265 257 190 224 257 102 234 260 287 298 307 311 306 315 324 323 312 318 318 315 321 322 322 325 320 323 324 328 335 329 327 320 312 288 262 239
235 203 148 244 43 268 278 27 85 174 124 149 151 194 221 248 268 267 281 267 295 314 314 308 301 297 291 295 304 307 310 310 318 322 321 331 331 322 320 318 315 309 282 249
221 223 251 184 204 305 302 218 155 133 257 194 194 235 252 260 285 278 251 242 272 279 289 286 288 282 287 286 284 296 309 316 321 316 326 333 326 316 319 318 316 310 299 274
198 215 174 94 194 217 242 227 179 121 278 203 198 225 241 241 232 276 238 243 261 267 275 288 291 296 295 300 302 304 307 310 311 311 321 317 311 307 309 307 308 302 291 284
27 12 214 230 256 289 247 223 168 82 259 225 204 256 245 247 249 271 253 254 249 262 280 283 289 289 291 298 304 293 298 296 301 311 311 306 305 306 303 299 297 296 292 288
178 162 205 83 58 282 201 340 143 224 275 248 284 274 258 266 270 265 260 274 280 279 288 293 290 288 290 295 293 289 289 298 299 307 303 304 303 301 298 295 290 290 286 275
274 187 195 191 209 216 219 226 279 278 247 278 279 280 276 267 272 266 282 287 288 284 283 289 283 284 289 290 284 281 287 302 299 295 292 295 294 291 290 291 295 288 272 261
259 189 236 276 252 252 262 268 271 265 271 277 281 283 286 267 286 297 292 288 292 293 295 297 295 290 290 294 291 285 296 302 297 289 289 289 289 291 287 283 278 271 265 263
238 167 221 252 259 266 266 260 264 276 282 341 350 342 323 310 299 300 293 294 297 298 303 303 297 295 292 300 296 298 300 301 290 287 287 286 282 280 281 275 278 278 258 247
236 248 239 252 260 255 268 282 50 328 11 20 342 322 317 324 303 308 295 302 304 304 311 306 300 296 296 298 296 297 297 293 290 287 286 283 284 281 278 279 284 269 274 264